South St. Paul, MN

1:33 PM CDT on September 23, 2017 (GMT -0500)
South Saint Paul Municipal-Fleming

Weather History for KSGS - October, 2012

Change the Weather History Date:

Tuesday, October 30, 2012

  Actual Average (KSTP) Record (KSTP)
Temperature  
Mean Temperature 40 °F -  
Max Temperature 50 °F 49 °F 72 °F (2008)
Min Temperature 31 °F 34 °F 24 °F (1996)
Degree Days  
Heating Degree Days 24    
Moisture  
Dew Point 24 °F    
Average Humidity 55    
Maximum Humidity 79    
Minimum Humidity 32    
Precipitation  
Precipitation 0.00 in - - ()
Sea Level Pressure  
Sea Level Pressure 30.15 in    
Wind  
Wind Speed 3 mph (NNE)    
Max Wind Speed 13 mph    
Max Gust Speed 20 mph    
Visibility 10 miles    
Events      
Averages and records for this station are not official NWS values.
T = Trace of Precipitation, MM = Missing Value Source: NWS Daily Summary

Daily Weather History Graph

Daily Weather History Graph

Search for Another Location

Airport or City:

Trip Planner

Search our weather history database for the weather conditions in past years. The results will help you decide how hot, cold, wet, or windy it might be!

Date:

Astronomy

Oct. 30, 2012 Rise Set
Actual Time 7:48 AM CDT 6:02 PM CDT
Civil Twilight 7:17 AM CDT 6:32 PM CDT
Nautical Twilight 6:43 AM CDT 7:07 PM CDT
Astronomical Twilight 6:09 AM CDT 7:41 PM CDT
Moon 6:28 PM CDT (10/30) 8:38 AM CDT (10/30)
Length of Visible Light 11h 15m
Length of Day
10h 14m
Full, 99% of the Moon is Illuminated
Oct 30
Full
Nov 6
Last Quarter
Nov 13
New
Nov 20
First Quarter
Nov 28
Full

Hourly Weather History & Observations

Time (CDT) Temp. Windchill Dew Point Humidity Pressure Visibility Wind Dir Wind Speed Gust Speed Precip Events Conditions
12:12 AM 36.9 °F - 27.1 °F 68% 30.24 in 10.0 mi Calm Calm - N/A   Clear
12:32 AM 36.5 °F - 27.0 °F 68% 30.24 in 10.0 mi Calm Calm - N/A   Clear
12:52 AM 34.0 °F - 26.6 °F 74% 30.24 in 10.0 mi Calm Calm - N/A   Clear
1:12 AM 33.4 °F - 25.7 °F 73% 30.24 in 10.0 mi Calm Calm - N/A   Clear
1:32 AM 33.3 °F - 25.2 °F 72% 30.24 in 10.0 mi Calm Calm - N/A   Clear
1:52 AM 32.9 °F - 25.9 °F 75% 30.24 in 10.0 mi Calm Calm - N/A   Clear
2:32 AM 32.0 °F - 25.5 °F 77% 30.24 in 10.0 mi Calm Calm - N/A   Clear
2:52 AM 31.8 °F - 25.7 °F 78% 30.24 in 10.0 mi Calm Calm - N/A   Clear
3:12 AM 31.5 °F - 25.7 °F 79% 30.24 in 10.0 mi Calm Calm - N/A   Clear
3:52 AM 31.8 °F - 25.7 °F 78% 30.23 in 10.0 mi Calm Calm - N/A   Clear
4:12 AM 31.6 °F - 25.3 °F 78% 30.22 in 10.0 mi Calm Calm - N/A   Clear
4:32 AM 31.8 °F - 24.6 °F 75% 30.22 in 10.0 mi Calm Calm - N/A   Clear
4:52 AM 33.4 °F - 23.7 °F 68% 30.22 in 10.0 mi Calm Calm - N/A   Clear
5:12 AM 34.2 °F - 23.7 °F 66% 30.22 in 10.0 mi Calm Calm - N/A   Clear
5:32 AM 35.6 °F - 23.9 °F 62% 30.22 in 10.0 mi Calm Calm - N/A   Clear
5:52 AM 36.0 °F 32.1 °F 23.9 °F 62% 30.22 in 10.0 mi East 4.6 mph - N/A   Clear
6:12 AM 35.4 °F - 23.9 °F 63% 30.23 in 10.0 mi Calm Calm - N/A   Clear
6:32 AM 34.7 °F 31.8 °F 24.3 °F 66% 30.23 in 10.0 mi East 3.5 mph - N/A   Clear
6:52 AM 32.7 °F - 24.1 °F 71% 30.23 in 10.0 mi Calm Calm - N/A   Clear
7:12 AM 32.2 °F - 23.9 °F 72% 30.22 in 10.0 mi Calm Calm - N/A   Clear
7:32 AM 31.8 °F - 24.3 °F 74% 30.22 in 10.0 mi Calm Calm - N/A   Clear
7:52 AM 32.0 °F - 24.4 °F 74% 30.22 in 10.0 mi Calm Calm - N/A   Clear
8:12 AM 32.4 °F - 24.8 °F 74% 30.22 in 10.0 mi Calm Calm - N/A   Clear
8:32 AM 33.8 °F - 25.7 °F 72% 30.22 in 10.0 mi Calm Calm - N/A   Clear
8:52 AM 34.9 °F - 26.8 °F 72% 30.22 in 10.0 mi Calm Calm - N/A   Clear
9:12 AM 36.1 °F - 27.0 °F 69% 30.22 in 10.0 mi Calm Calm - N/A   Unknown
9:52 AM 39.2 °F 35.9 °F 29.7 °F 69% 30.22 in 10.0 mi NNE 4.6 mph - N/A   Clear
10:12 AM 40.5 °F 35.8 °F 30.6 °F 68% 30.21 in 10.0 mi ENE 6.9 mph - N/A   Clear
10:32 AM 41.5 °F 35.4 °F 30.4 °F 65% 30.20 in 10.0 mi NE 10.4 mph - N/A   Clear
10:52 AM 42.6 °F 38.4 °F 30.7 °F 63% 30.20 in 10.0 mi NE 6.9 mph - N/A   Clear
11:12 AM 43.7 °F 39.1 °F 29.7 °F 58% 30.19 in 10.0 mi NE 8.1 mph - N/A   Clear
11:32 AM 44.6 °F 40.2 °F 29.1 °F 55% 30.18 in 10.0 mi ENE 8.1 mph - N/A   Clear
11:52 AM 45.3 °F 41.1 °F 29.7 °F 54% 30.17 in 10.0 mi ENE 8.1 mph - N/A   Clear
12:12 PM 46.2 °F 42.7 °F 29.5 °F 52% 30.16 in 10.0 mi North 6.9 mph - N/A   Clear
12:32 PM 46.9 °F - 29.3 °F 50% 30.15 in 10.0 mi ENE 5.8 mph - N/A   Clear
12:52 PM 48.0 °F - 29.1 °F 48% 30.14 in 10.0 mi NNE 6.9 mph - N/A   Clear
1:12 PM 48.9 °F - 27.5 °F 43% 30.13 in 10.0 mi NNE 6.9 mph - N/A   Clear
1:32 PM 50.4 °F - 28.2 °F 42% 30.12 in 10.0 mi North 6.9 mph - N/A   Clear
1:52 PM 50.4 °F - 25.9 °F 39% 30.11 in 10.0 mi North 11.5 mph - N/A   Clear
2:12 PM 50.4 °F - 26.8 °F 40% 30.10 in 10.0 mi North 10.4 mph - N/A   Clear
2:32 PM 50.4 °F - 25.7 °F 38% 30.09 in 10.0 mi NNE 9.2 mph - N/A   Clear
2:52 PM 50.0 °F - 25.9 °F 39% 30.09 in 10.0 mi North 9.2 mph - N/A   Clear
3:12 PM 50.2 °F - 24.8 °F 37% 30.09 in 10.0 mi North 12.7 mph 17.3 mph N/A   Clear
3:32 PM 50.2 °F - 23.9 °F 36% 30.09 in 10.0 mi North 11.5 mph - N/A   Clear
3:52 PM 50.0 °F - 23.2 °F 35% 30.08 in 10.0 mi North 11.5 mph - N/A   Clear
4:12 PM 49.8 °F - 23.9 °F 36% 30.07 in 10.0 mi North 9.2 mph - N/A   Clear
4:32 PM 48.9 °F - 23.2 °F 36% 30.07 in 10.0 mi North 6.9 mph - N/A   Clear
4:52 PM 49.3 °F - 22.1 °F 34% 30.07 in 10.0 mi North 11.5 mph - N/A   Clear
5:12 PM 48.7 °F - 19.8 °F 32% 30.07 in 10.0 mi North 12.7 mph 19.6 mph N/A   Clear
5:32 PM 47.5 °F - 19.6 °F 33% 30.07 in 10.0 mi North 6.9 mph - N/A   Clear
5:52 PM 46.8 °F - 20.8 °F 36% 30.07 in 10.0 mi North 5.8 mph - N/A   Clear
6:12 PM 46.0 °F 41.4 °F 20.7 °F 37% 30.07 in 10.0 mi NNE 9.2 mph - N/A   Clear
6:32 PM 45.0 °F 41.8 °F 20.1 °F 37% 30.07 in 10.0 mi North 5.8 mph - N/A   Clear
6:52 PM 44.4 °F 40.0 °F 19.2 °F 37% 30.07 in 10.0 mi NNE 8.1 mph - N/A   Clear
7:12 PM 43.7 °F 39.7 °F 19.4 °F 38% 30.07 in 10.0 mi North 6.9 mph - N/A   Clear
7:32 PM 42.8 °F 36.2 °F 19.4 °F 39% 30.07 in 10.0 mi NNE 12.7 mph 17.3 mph N/A   Clear
7:52 PM 42.1 °F 36.1 °F 19.8 °F 41% 30.07 in 10.0 mi NNE 10.4 mph 18.4 mph N/A   Clear
8:12 PM 41.0 °F 35.8 °F 19.6 °F 42% 30.08 in 10.0 mi North 8.1 mph - N/A   Clear
8:32 PM 40.1 °F 34.7 °F 20.3 °F 45% 30.08 in 10.0 mi North 8.1 mph - N/A   Clear
8:52 PM 39.6 °F 34.0 °F 18.5 °F 43% 30.08 in 10.0 mi North 8.1 mph - N/A   Clear
9:12 PM 38.5 °F 35.0 °F 18.9 °F 45% 30.09 in 10.0 mi North 4.6 mph - N/A   Clear
9:32 PM 38.3 °F 33.2 °F 18.1 °F 44% 30.09 in 10.0 mi North 6.9 mph - N/A   Unknown
9:52 PM 37.4 °F 33.8 °F 18.3 °F 46% 30.09 in 10.0 mi North 4.6 mph - N/A   Unknown
10:12 PM 37.0 °F 34.5 °F 18.1 °F 46% 30.09 in 10.0 mi North 3.5 mph - N/A   Clear
10:32 PM 36.7 °F 34.1 °F 18.0 °F 47% 30.08 in 10.0 mi North 3.5 mph - N/A   Clear
10:52 PM 35.6 °F - 18.0 °F 49% 30.07 in 10.0 mi Calm Calm - N/A   Clear
11:12 PM 35.1 °F - 17.6 °F 49% 30.07 in 10.0 mi Calm Calm - N/A   Clear
11:32 PM 35.1 °F 32.2 °F 17.6 °F 49% 30.07 in 10.0 mi North 3.5 mph - N/A   Clear
11:52 PM 33.8 °F 30.8 °F 18.1 °F 53% 30.07 in 10.0 mi NNW 3.5 mph - N/A   Unknown